📊 Raw Sensor Data
Showing records 41701 to 41725 of 84,987 total
| ID | Distance (ft) | Battery V | Battery A | Int Temp (°F) | Int Humid (%) | Ext Temp (°F) | Solar V | RSSI | SNR | Time Stamp |
|---|---|---|---|---|---|---|---|---|---|---|
| 43299 | 15.6 | 4.14 | 0 | 89 | 41 | 82 | 5.10 | -72 | 7 | 06/12/2025 01:45 PM |
| 43298 | 15.6 | 4.02 | 0 | 88 | 41 | 81 | 5.10 | -70 | 7 | 06/12/2025 01:30 PM |
| 43297 | 15.6 | 4.02 | 0 | 87 | 41 | 80 | 5.10 | -71 | 7 | 06/12/2025 01:15 PM |
| 43296 | 15.6 | 4.07 | 0 | 85 | 42 | 81 | 5.10 | -70 | 8 | 06/12/2025 01:00 PM |
| 43295 | 15.6 | 4.02 | 0 | 83 | 42 | 79 | 5.10 | -66 | 8 | 06/12/2025 12:45 PM |
| 43294 | 15.6 | 4.07 | 0 | 81 | 43 | 80 | 5.10 | -69 | 7 | 06/12/2025 12:30 PM |
| 43293 | 15.7 | 4.02 | 0 | 79 | 43 | 76 | 5.10 | -68 | 8 | 06/12/2025 12:15 PM |
| 43292 | 15.7 | 4.02 | 0 | 78 | 43 | 75 | 5.10 | -68 | 7 | 06/12/2025 12:00 PM |
| 43291 | 15.7 | 4.02 | 0 | 78 | 43 | 77 | 5.10 | -69 | 8 | 06/12/2025 11:45 AM |
| 43290 | 15.7 | 4.02 | 0 | 77 | 43 | 77 | 5.10 | -67 | 8 | 06/12/2025 11:30 AM |
| 43289 | 15.7 | 4.10 | 0 | 76 | 42 | 78 | 5.10 | -68 | 8 | 06/12/2025 11:15 AM |
| 43288 | 15.7 | 4.02 | 0 | 75 | 42 | 79 | 5.10 | -69 | 8 | 06/12/2025 11:00 AM |
| 43287 | 15.7 | 4.02 | 0 | 74 | 42 | 78 | 5.10 | -68 | 8 | 06/12/2025 10:45 AM |
| 43286 | 15.7 | 4.02 | 0 | 72 | 43 | 74 | 5.10 | -69 | 8 | 06/12/2025 10:30 AM |
| 43285 | 15.7 | 4.02 | 0 | 71 | 43 | 71 | 5.10 | -72 | 7 | 06/12/2025 10:15 AM |
| 43284 | 15.7 | 4.02 | 0 | 69 | 43 | 71 | 5.10 | -70 | 8 | 06/12/2025 09:45 AM |
| 43283 | 15.7 | 4.02 | 0 | 68 | 43 | 70 | 5.10 | -68 | 7 | 06/12/2025 09:30 AM |
| 43282 | 15.6 | 4.04 | 0 | 67 | 44 | 67 | 5.10 | -69 | 7 | 06/12/2025 09:15 AM |
| 43281 | 15.7 | 4.02 | 0 | 66 | 44 | 65 | 5.10 | -68 | 8 | 06/12/2025 09:00 AM |
| 43280 | 15.6 | 4.14 | 0 | 65 | 44 | 65 | 5.10 | -70 | 8 | 06/12/2025 08:45 AM |
| 43279 | 15.7 | 4.02 | 0 | 64 | 43 | 68 | 5.10 | -70 | 8 | 06/12/2025 08:30 AM |
| 43278 | 15.7 | 4.13 | 0 | 63 | 43 | 65 | 5.10 | -71 | 7 | 06/12/2025 08:15 AM |
| 43277 | 15.6 | 4.02 | 0 | 62 | 43 | 64 | 5.10 | -69 | 8 | 06/12/2025 08:00 AM |
| 43276 | 15.6 | 4.02 | 0 | 61 | 42 | 63 | 5.10 | -68 | 8 | 06/12/2025 07:45 AM |
| 43275 | 15.6 | 4.02 | 0 | 60 | 42 | 63 | 5.10 | -67 | 8 | 06/12/2025 07:30 AM |